EW5726 Weather Reports


Display with metric or nautical units.
time (UTC)temp
F
wind
direction
speed
MPH
gust
MPH
rain 1hr
in
rain 24hr
in
rain mn
in
humidity
%
barometer
mb
20260506001600 53 257 5.0 15.0 0.00 0.00 0.00 48 1010.0
20260506000058 53 235 5.0 17.0 0.00 0.00 0.00 49 1009.8
20260505234608 54 241 8.0 16.0 0.00 0.00 0.00 49 1010.0
20260505233057 51 226 8.0 16.0 0.00 0.00 0.00 53 1009.9
20260505231606 52 252 5.0 17.0 0.00 0.00 0.00 51 1009.8
20260505230055 52 244 5.0 20.0 0.00 0.00 0.00 52 1009.7
20260505224554 53 239 3.0 13.0 0.00 0.00 0.00 50 1009.4
20260505223103 53 225 5.0 18.0 0.00 0.00 0.00 49 1009.6
20260505221558 54 226 8.0 16.0 0.00 0.00 0.00 48 1009.7
20260505220052 55 244 8.0 16.0 0.00 0.00 0.00 46 1009.6
20260505214611 56 236 3.0 15.0 0.00 0.00 0.00 48 1009.7
20260505213046 55 240 7.0 14.0 0.00 0.00 0.00 49 1010.1
20260505211544 55 252 6.0 15.0 0.00 0.00 0.00 50 1010.1
20260505210044 53 261 8.0 14.0 0.00 0.00 0.00 52 1010.4
20260505204540 54 259 5.0 17.0 0.00 0.00 0.00 51 1010.5
20260505203040 51 274 5.0 19.0 0.00 0.00 0.00 55 1010.9
20260505201539 52 249 5.0 12.0 0.00 0.00 0.00 57 1010.9
20260505200044 51 248 8.0 19.0 0.00 0.00 0.00 55 1010.8
20260505194537 51 259 8.0 17.0 0.00 0.00 0.00 56 1010.9
20260505193038 51 256 6.0 15.0 0.00 0.00 0.00 53 1010.6
20260505191542 52 246 6.0 13.0 0.00 0.00 0.00 52 1010.7
20260505190039 52 254 6.0 14.0 0.00 0.00 0.00 51 1010.7
20260505184534 53 233 4.0 15.0 0.00 0.00 0.00 47 1010.7
20260505183049 53 246 2.0 12.0 0.00 0.00 0.00 44 1010.8
20260505181533 54 219 2.0 12.0 0.00 0.00 0.00 43 1010.6
20260505180030 53 228 4.0 9.0 0.00 0.00 0.00 45 1010.9
20260505174529 51 254 3.0 8.0 0.00 0.00 0.00 46 1011.3
20260505173028 52 294 1.0 8.0 0.00 0.00 0.00 45 1011.3
20260505171526 51 242 1.0 5.0 0.00 0.00 0.00 46 1011.5
20260505170026 50 239 2.0 10.0 0.00 0.00 0.00 47 1011.6
20260505164523 50 240 3.0 7.0 0.00 0.00 0.00 48 1011.7
20260505163024 49 246 1.0 9.0 0.00 0.00 0.00 48 1011.9
20260505161523 48 246 3.0 10.0 0.00 0.00 0.00 51 1011.9
20260505153022 48 252 2.0 7.0 0.00 0.00 0.00 52 1012.2
20260505151520 48 250 2.0 8.0 0.00 0.00 0.00 52 1012.1
20260505124519 44 265 0.0 3.0 0.00 0.00 0.00 52 1012.5
20260505123009 43 265 3.0 6.0 0.00 0.00 0.00 51 1012.4
20260505121511 40 262 0.0 4.0 0.00 0.00 0.00 55 1012.1
20260505120018 41 262 0.0 4.0 0.00 0.00 0.00 53 1011.9
20260505114504 41 262 0.0 4.0 0.00 0.00 0.00 53 1012.1
20260505113125 42 262 0.0 0.0 0.00 0.00 0.00 52 1012.3
20260505111556 43 262 0.0 3.0 0.00 0.00 0.00 50 1012.1
20260505101552 45 260 0.0 0.0 0.00 0.00 0.00 47 1012.0
20260505100044 46 260 0.0 0.0 0.00 0.00 0.00 46 1012.0
20260505094543 47 260 0.0 1.0 0.00 0.00 0.00 45 1011.9
20260505093050 48 260 0.0 2.0 0.00 0.00 0.00 43 1011.9
20260505091550 47 260 2.0 8.0 0.00 0.00 0.00 45 1011.8
20260505090040 48 260 0.0 1.0 0.00 0.00 0.00 42 1012.1
20260505084534 49 260 0.0 1.0 0.00 0.00 0.00 40 1012.3
20260505083032 49 260 0.0 3.0 0.00 0.00 0.00 39 1012.6
20260505081528 50 260 0.0 3.0 0.00 0.00 0.00 40 1013.1
20260505080027 51 261 1.0 5.0 0.00 0.00 0.00 37 1012.9
20260505074528 51 259 0.0 5.0 0.00 0.00 0.00 38 1013.1
20260505073027 51 265 2.0 7.0 0.00 0.00 0.00 36 1012.8
20260505071530 52 265 0.0 2.0 0.00 0.00 0.00 36 1012.5
20260505070021 52 265 2.0 7.0 0.00 0.00 0.00 37 1012.8
20260505064517 53 251 0.0 5.0 0.00 0.00 0.00 38 1012.8
20260505063016 53 252 2.0 7.0 0.00 0.00 0.00 37 1012.8
20260505061517 54 253 3.0 7.0 0.00 0.00 0.00 36 1012.8
20260505060032 54 254 3.0 6.0 0.00 0.00 0.00 37 1013.2
20260505054512 53 257 0.0 5.0 0.00 0.00 0.00 40 1013.0
20260505053008 52 255 0.0 1.0 0.00 0.00 0.00 39 1012.9
20260505051516 53 255 0.0 0.0 0.00 0.00 0.00 37 1012.9
20260505041508 55 255 1.0 4.0 0.00 0.00 0.00 33 1013.1
20260505040007 55 255 3.0 7.0 0.00 0.00 0.00 32 1013.3
20260505034505 56 257 1.0 4.0 0.00 0.00 0.00 30 1013.2
20260505033005 56 254 1.0 5.0 0.00 0.00 0.00 30 1013.1
20260505031505 56 273 1.0 5.0 0.00 0.00 0.00 28 1012.9
20260505030005 57 293 1.0 7.0 0.00 0.00 0.00 28 1012.7
20260505024506 57 263 2.0 9.0 0.00 0.00 0.00 27 1012.5
20260505023009 58 269 2.0 5.0 0.00 0.00 0.00 26 1012.3
20260505021506 59 267 2.0 8.0 0.00 0.00 0.00 25 1012.2
20260505014559 60 245 7.0 15.0 0.00 0.00 0.00 23 1012.1
20260505013126 60 237 8.0 15.0 0.00 0.00 0.00 23 1011.7
20260505011620 60 256 0.0 15.0 0.00 0.00 0.00 23 1011.5